TimeCST,TemperatureF,Dew PointF,Humidity,Sea Level PressureIn,VisibilityMPH,Wind Direction,Wind SpeedMPH,Gust SpeedMPH,PrecipitationIn,Events,Conditions,WindDirDegrees,DateUTC
12:54 AM,35.1,28.9,78,30.12,10.0,Calm,Calm,-,N/A,,Clear,0,2012-11-30 06:54:00
1:54 AM,36.0,28.9,76,30.12,10.0,East,4.6,-,N/A,,Clear,80,2012-11-30 07:54:00
2:54 AM,30.9,25.0,79,30.11,10.0,ESE,5.8,-,N/A,,Clear,110,2012-11-30 08:54:00
3:54 AM,32.0,27.0,82,30.10,10.0,East,4.6,-,N/A,,Clear,80,2012-11-30 09:54:00
4:54 AM,33.1,28.0,82,30.10,10.0,East,4.6,-,N/A,,Clear,80,2012-11-30 10:54:00
5:54 AM,30.9,27.0,85,30.11,10.0,ENE,3.5,-,N/A,,Clear,70,2012-11-30 11:54:00
6:54 AM,32.0,27.0,82,30.11,10.0,ENE,4.6,-,N/A,,Clear,70,2012-11-30 12:54:00
7:54 AM,36.0,30.0,79,30.12,10.0,East,5.8,-,N/A,,Clear,100,2012-11-30 13:54:00
8:54 AM,46.9,35.1,63,30.12,10.0,SE,3.5,-,N/A,,Clear,140,2012-11-30 14:54:00
9:54 AM,54.0,36.0,51,30.12,10.0,SW,8.1,-,N/A,,Clear,230,2012-11-30 15:54:00
10:54 AM,59.0,37.9,46,30.10,10.0,SW,9.2,-,N/A,,Clear,230,2012-11-30 16:54:00
11:54 AM,61.0,39.0,44,30.08,10.0,WSW,9.2,-,N/A,,Clear,250,2012-11-30 17:54:00
12:54 PM,63.0,39.9,43,30.06,10.0,SW,9.2,-,N/A,,Clear,230,2012-11-30 18:54:00
1:54 PM,64.0,41.0,43,30.05,10.0,SW,10.4,-,N/A,,Clear,230,2012-11-30 19:54:00
2:54 PM,64.9,42.1,43,30.05,10.0,SW,8.1,-,N/A,,Clear,230,2012-11-30 20:54:00
3:54 PM,64.0,43.0,46,30.06,10.0,SW,6.9,-,N/A,,Clear,220,2012-11-30 21:54:00
4:54 PM,57.0,39.9,53,30.07,10.0,South,4.6,-,N/A,,Clear,180,2012-11-30 22:54:00
6:54 PM,45.0,36.0,71,30.09,10.0,East,5.8,-,N/A,,Clear,80,2012-12-01 00:54:00
8:54 PM,44.1,36.0,73,30.08,10.0,East,5.8,-,N/A,,Clear,90,2012-12-01 02:54:00
9:54 PM,44.1,36.0,73,30.09,8.0,East,6.9,-,N/A,,Clear,90,2012-12-01 03:54:00
10:54 PM,43.0,36.0,76,30.09,7.0,East,6.9,-,N/A,,Clear,100,2012-12-01 04:54:00
11:54 PM,41.0,35.1,79,30.10,9.0,East,4.6,-,N/A,,Clear,100,2012-12-01 05:54:00